Regional Weather Roundup
Issued by NWS

Home | Current Version | Previous Version | Graphics & Text | Print | Product List | Glossary On
Versions: 1 2 3 4 5 6 7 8 9 10 11 12 13 14 15 16 17 18 19 20 21 22 23 24 25 26 27 28 29 30
000
ASUS45 KGTF 170510
RWRMT
MONTANA HOURLY WEATHER ROUNDUP
NATIONAL WEATHER SERVICE GREAT FALLS MT
1100 PM MDT THU APR 16 2015

NOTE: "FAIR" INDICATES FEW OR NO CLOUDS BELOW 12000 FEET WITH NO
SIGNIFICANT WEATHER AND/OR OBSTRUCTIONS TO VISIBILITY.

MTZ001>007-043-170600-
WEST OF THE DIVIDE

CITY           SKY/WX    TMP DP  RH WIND       PRES   REMARKS
KALISPELL      CLEAR     38  31  76 CALM      30.19R
MISSOULA       CLEAR     45  27  49 E5        30.21R
BUTTE          CLEAR     35  24  64 SE5       30.24R
DEER LODGE       N/A     37  21  52 CALM      30.26R
EUREKA           N/A     45  30  57 CALM      30.19
HAMILTON         N/A     41  28  60 S5        30.21R
LIBBY            N/A     45  30  57 SE3       30.21S
$$

MTZ008-052>055-170600-
SOUTHWEST MONTANA

CITY           SKY/WX    TMP DP  RH WIND       PRES   REMARKS
BOZEMAN        CLEAR     35  29  78 S7        30.24S WCI  29
DILLON         CLEAR     38  26  62 S10       30.22R WCI  31
$$

MTZ009-010-012-014-046-048-049-054-170600-
EAST SLOPES AND CENTRAL MONTANA

CITY           SKY/WX    TMP DP  RH WIND       PRES   REMARKS
CUT BANK       CLEAR     43  26  51 W14       30.13S
GREAT FALLS    CLEAR     48  24  39 S14       30.13R
MALMSTROM AFB  CLEAR     44  27  51 S10       30.13R
HELENA         CLEAR     43  24  47 E3        30.20R
$$

MTZ011-013-016-021-045-047-050-051-170600-
NORTH CENTRAL MONTANA

CITY           SKY/WX    TMP DP  RH WIND       PRES   REMARKS
HAVRE          PTCLDY    44  29  55 S6        30.11R
LEWISTOWN      CLEAR     38  27  64 SE5       30.17F
FORT BENTON      N/A     46  28  49 SW5       30.13R
$$

MTZ017>020-022>042-056>058-061-062-170600-
EASTERN PLAINS

CITY           SKY/WX    TMP DP  RH WIND       PRES   REMARKS
BAKER          CLEAR     37  24  59 CALM      30.22S
BILLINGS       CLEAR     44  30  57 SW5       30.22F
GLASGOW        CLEAR     43  20  39 SE9       30.15S
JORDAN           N/A     45  20  36 SW10      30.18S
LIVINGSTON     CLEAR     33  26  75 S5        30.23R
MILES CITY     CLEAR     47  18  31 SW5       30.20F
SIDNEY         CLEAR     37  19  48 CALM      30.18F
WOLF POINT     CLEAR     37  21  52 W3        30.16F
BIG TIMBER       N/A     39  28  65 W7        30.23S
FORSYTH          N/A     46  28  49 S3        30.22S
PLENTYWOOD       N/A     46  18  31 W8        30.15R
POPLAR           N/A     46  18  31 SE5       30.17F
$$

REGIONAL REPORTS...DAKOTAS

CITY           SKY/WX    TMP DP  RH WIND       PRES   REMARKS
WILLISTON      CLEAR     36  19  50 S5        30.16F
MINOT          CLEAR     44  21  40 SW10      30.15S
DICKINSON      CLEAR     33  22  63 S6        30.18S WCI  28
BEACH          FAIR      39  18  41 SW3       30.21S
CROSBY         FAIR      39  30  70 SW10      30.14S
WATFORD CITY   FAIR      36  16  44 SW6       30.16S WCI  31
BISMARCK       CLEAR     40  22  48 CALM      30.19S
GRAND FORKS    CLEAR     34  24  67 W5        30.12R
FARGO          CLEAR     43  24  47 N5        30.12R
BUFFALO SD       N/A     49  18  29 N10       30.15F
RAPID CITY     PTCLDY    44  32  62 NW8       30.22R
$$

REGIONAL REPORTS...WYOMING/IDAHO/WASHINGTON

CITY           SKY/WX    TMP DP  RH WIND       PRES   REMARKS
GILLETTE       PTCLDY    31  26  82 S5        30.24S
SHERIDAN       CLEAR     32  27  81 CALM      30.25S
BUFFALO WY     CLEAR     37  25  61 W7        30.25F WCI  32
CODY           PTCLDY    37  28  70 SW10      30.26F WCI  30
YELLOWSTONE LA   N/A     26  21  81 CALM      30.27S
IDAHO FALLS    CLEAR     45  23  42 N10       30.17R
SALMON         CLEAR     39  23  52 CALM      30.18R
BOISE          CLEAR     50  29  44 SE5       30.15R
SPOKANE        CLEAR     48  33  56 SW6       30.22S
$$

REGIONAL REPORTS...ALBERTA

CITY           SKY/WX    TMP DP  RH WIND       PRES   REMARKS
EDMONTON       PTCLDY    37  30  75 NW7       30.14R
CALGARY        CLEAR     54  21  28 W16G23    30.14R
LETHBRIDGE     CLEAR     50  28  43 W21       30.11R
MEDICINE HAT   CLEAR     43  30  61 NW8       30.06R
$$

REGIONAL REPORTS...SASKATCHEWAN

CITY           SKY/WX    TMP DP  RH WIND       PRES   REMARKS
SWIFT CURRENT  CLEAR     45  25  45 SW15      30.05S
REGINA         MOCLDY    48  28  46 S13       30.05F
SASKATOON      CLEAR     39  27  60 SW9       29.99S
$$



USA.gov is the U.S. government's official web portal to all federal, state and local government web resources and services.